User: anonymous   Login
Location: Unspecified
(0.0000°N, 0.0000°E)
Time: 18:43:53
(UTC+00:00)
Language:

MOZHAYETS - Orbit

View from above orbital plane
View from above orbital plane
View from above satellite
View from above satellite

Ground track
Ground track

The orbit data is extracted from the following two-line orbital elements,

1 27560U 02054B   17145.92804583 +.00000068 +00000-0 +25158-4 0  9997
2 27560 098.2043 280.6987 0041127 179.1593 294.1206 14.57614879769804
Epoch (UTC): 25 May 2017 22:16:23
Eccentricity: 0.0041127
inclination: 98.2043°
perigee height: 672 km
apogee height: 730 km
right ascension of ascending node: 280.6987°
argument of perigee: 179.1593°
revolutions per day: 14.57614879
mean anomaly at epoch: 294.1206°
orbit number at epoch: 76980

The dashed part of the orbit path shows where the satellite is in the earth's shadow,  

DLR